Zacatecas Airport, Mexico

8:21 AM CDT on May 27, 2017 (GMT -0500)
Gen Leobardo C Ruiz International

Weather History for MMZC - November, 2012

Change the Weather History Date:

Sunday, November 18, 2012

  Actual Average Record
Temperature  
Mean Temperature 58 °F -  
Max Temperature 73 °F 70 °F 75 °F (2003)
Min Temperature 44 °F 35 °F 28 °F (2008)
Degree Days  
Heating Degree Days 6    
Growing Degree Days 8 (Base 50)    
Moisture  
Dew Point 40 °F    
Average Humidity 48    
Maximum Humidity 81    
Minimum Humidity 28    
Precipitation  
Precipitation 0.00 in - - ()
Sea Level Pressure  
Sea Level Pressure 30.35 in    
Wind  
Wind Speed 4 mph ()    
Max Wind Speed 14 mph    
Max Gust Speed 21 mph    
Visibility 10.0 miles    
Events      
Averages and records for this station are not official NWS values.
T = Trace of Precipitation, MM = Missing Value Source: Averaged Metar Reports

Daily Weather History Graph

Daily Weather History Graph

Search for Another Location

Airport or City:

Trip Planner

Search our weather history database for the weather conditions in past years. The results will help you decide how hot, cold, wet, or windy it might be!

Date:

Astronomy

Nov. 18, 2012 Rise Set
Actual Time 7:06 AM CST 6:05 PM CST
Civil Twilight 6:42 AM CST 6:29 PM CST
Nautical Twilight 6:15 AM CST 6:56 PM CST
Astronomical Twilight 5:48 AM CST 7:23 PM CST
Moon 11:41 AM CST (11/18) 11:17 PM CST (11/18)
Length of Visible Light 11h 46m
Length of Day
10h 59m
Waxing Crescent, 30% of the Moon is Illuminated
Nov 18
Waxing Crescent
Nov 20
First Quarter
Nov 28
Full
Dec 6
Last Quarter
Dec 13
New

Hourly Weather History & Observations

Time (CST) Temp. Windchill Dew Point Humidity Pressure Visibility Wind Dir Wind Speed Gust Speed Precip Events Conditions
12:51 AM 53.6 °F - 42.8 °F 67% 30.36 in 10.0 mi Calm Calm - N/A   Clear
1:51 AM 51.8 °F - 39.2 °F 62% 30.35 in 10.0 mi South 4.6 mph - N/A   Clear
5:01 AM 46.4 °F 44.3 °F 39.2 °F 76% 30.34 in 10.0 mi South 4.6 mph - N/A   Clear
5:53 AM 46.4 °F 44.3 °F 39.2 °F 76% 30.37 in 10.0 mi South 4.6 mph - N/A   Scattered Clouds
6:47 AM 44.6 °F 42.2 °F 39.2 °F 81% 30.35 in 10.0 mi South 4.6 mph - N/A   Scattered Clouds
8:43 AM 55.4 °F - 42.8 °F 63% 30.38 in 10.0 mi South 6.9 mph - N/A   Mostly Cloudy
9:43 AM 64.4 °F - 42.8 °F 45% 30.40 in 10.0 mi SSW 9.2 mph - N/A   Scattered Clouds
10:43 AM 69.8 °F - 46.4 °F 43% 30.40 in 10.0 mi South 9.2 mph - N/A   Clear
11:43 AM 71.6 °F - 42.8 °F 35% 30.38 in 10.0 mi SSW 5.8 mph - N/A   Partly Cloudy
12:43 PM 73.4 °F - 44.6 °F 36% 30.35 in 10.0 mi Calm Calm - N/A   Scattered Clouds
1:43 PM 73.4 °F - 39.2 °F 29% 30.31 in 10.0 mi WSW 5.8 mph - N/A   Mostly Cloudy
2:46 PM 73.4 °F - 41.0 °F 31% 30.29 in 10.0 mi WSW 11.5 mph - N/A   Mostly Cloudy
3:43 PM 73.4 °F - 39.2 °F 29% 30.29 in 10.0 mi West 9.2 mph 20.7 mph N/A   Mostly Cloudy
4:44 PM 73.4 °F - 41.0 °F 31% 30.29 in 10.0 mi West 13.8 mph - N/A   Mostly Cloudy
5:45 PM 69.8 °F - 35.6 °F 28% 30.30 in 10.0 mi SSW 4.6 mph - N/A   Mostly Cloudy
6:43 PM 64.4 °F - 37.4 °F 37% 30.32 in 10.0 mi SSE 5.8 mph - N/A   Scattered Clouds
7:43 PM 60.8 °F - 37.4 °F 42% 30.34 in 10.0 mi West 5.8 mph - N/A   Scattered Clouds
8:42 PM 59.0 °F - 39.2 °F 48% 30.37 in 10.0 mi East 6.9 mph - N/A   Scattered Clouds
9:43 PM 57.2 °F - 35.6 °F 44% 30.38 in 10.0 mi Calm Calm - N/A   Scattered Clouds
10:43 PM 57.2 °F - 35.6 °F 44% 30.38 in 10.0 mi Calm Calm - N/A   Scattered Clouds
11:41 PM 51.8 °F - 35.6 °F 54% 30.40 in 10.0 mi SSW 5.8 mph - N/A   Scattered Clouds